Sweetwater, TX

12:48 PM CDT on May 21, 2018 (GMT -0500)
Avenger

Weather History for KSWW - March, 2013

Change the Weather History Date:

Tuesday, March 12, 2013

  Actual Average Record
Temperature  
Mean Temperature 55 °F -  
Max Temperature 64 °F 69 °F 95 °F (1989)
Min Temperature 46 °F 42 °F 6 °F (1948)
Degree Days  
Heating Degree Days 10    
Growing Degree Days 5 (Base 50)    
Moisture  
Dew Point 20 °F    
Average Humidity 26    
Maximum Humidity 40    
Minimum Humidity 20    
Precipitation  
Precipitation 0.00 in - - ()
Sea Level Pressure  
Sea Level Pressure 30.15 in    
Wind  
Wind Speed 14 mph (NNW)    
Max Wind Speed 23 mph    
Max Gust Speed 30 mph    
Visibility 10 miles    
Events      
Averages and records for this station are not official NWS values.
T = Trace of Precipitation, MM = Missing Value Source: NWS Daily Summary

Daily Weather History Graph

Daily Weather History Graph

Search for Another Location

Airport or City:

Astronomy

Mar. 12, 2013 Rise Set
Actual Time 7:55 AM CDT 7:47 PM CDT
Civil Twilight 7:31 AM CDT 8:12 PM CDT
Nautical Twilight 7:02 AM CDT 8:40 PM CDT
Astronomical Twilight 6:34 AM CDT 9:09 PM CDT
Moon 8:08 AM CDT (3/12) 8:57 PM CDT (3/12)
Length of Visible Light 12h 41m
Length of Day
11h 52m
New Moon, 1% of the Moon is Illuminated
Mar 12
New Moon
Mar 19
First Quarter
Mar 27
Full
Apr 2
Last Quarter
Apr 10
New

Hourly Weather History & Observations

Time (CDT) Temp. Dew Point Humidity Pressure Visibility Wind Dir Wind Speed Gust Speed Precip Events Conditions
12:15 AM 53.1 °F 16.2 °F 23% 30.00 in 10.0 mi SSE 9.2 mph - N/A   Clear
12:35 AM 51.3 °F 16.3 °F 25% 30.00 in 10.0 mi SSE 10.4 mph - N/A   Clear
1:15 AM 52.0 °F 16.2 °F 24% 29.99 in 10.0 mi South 11.5 mph - N/A   Clear
1:35 AM 52.3 °F 15.8 °F 24% 29.99 in 10.0 mi South 11.5 mph - N/A   Clear
1:55 AM 53.8 °F 16.3 °F 23% 29.99 in 10.0 mi South 10.4 mph - N/A   Clear
2:15 AM 54.1 °F 15.8 °F 22% 29.99 in 10.0 mi South 12.7 mph - N/A   Clear
2:35 AM 56.5 °F 15.4 °F 20% 29.99 in 10.0 mi South 16.1 mph - N/A   Clear
2:55 AM 55.6 °F 14.9 °F 20% 29.99 in 10.0 mi South 15.0 mph - N/A   Clear
3:15 AM 54.9 °F 14.9 °F 21% 29.99 in 10.0 mi SSW 16.1 mph - N/A   Clear
3:35 AM 54.9 °F 14.0 °F 20% 29.98 in 10.0 mi SSW 16.1 mph - N/A   Clear
3:55 AM 53.8 °F 13.6 °F 20% 29.98 in 10.0 mi SSW 16.1 mph - N/A   Clear
4:15 AM 52.9 °F 13.8 °F 21% 29.98 in 10.0 mi SSW 15.0 mph - N/A   Clear
4:35 AM 52.5 °F 13.5 °F 21% 29.98 in 10.0 mi SSW 16.1 mph - N/A   Clear
4:55 AM 52.7 °F 13.1 °F 21% 29.98 in 10.0 mi SSW 15.0 mph - N/A   Clear
5:15 AM 52.7 °F 12.9 °F 21% 29.98 in 10.0 mi SSW 16.1 mph - N/A   Clear
5:35 AM 52.9 °F 12.4 °F 20% 29.99 in 10.0 mi SSW 15.0 mph 21.9 mph N/A   Clear
5:55 AM 52.7 °F 12.6 °F 20% 29.99 in 10.0 mi SSW 16.1 mph - N/A   Clear
6:15 AM 52.9 °F 12.2 °F 20% 29.99 in 10.0 mi SSW 18.4 mph - N/A   Clear
6:35 AM 52.9 °F 12.2 °F 20% 29.99 in 10.0 mi SSW 17.3 mph - N/A   Clear
6:55 AM 51.6 °F 12.9 °F 21% 30.01 in 10.0 mi SSW 16.1 mph 24.2 mph N/A   Clear
7:15 AM 50.9 °F 13.5 °F 22% 30.02 in 10.0 mi SSW 16.1 mph - N/A   Clear
7:35 AM 51.4 °F 13.8 °F 22% 30.02 in 10.0 mi SSW 17.3 mph 21.9 mph N/A   Clear
7:55 AM 51.3 °F 14.0 °F 23% 30.03 in 10.0 mi SSW 15.0 mph - N/A   Clear
8:15 AM 50.7 °F 14.4 °F 24% 30.05 in 10.0 mi SW 10.4 mph - N/A   Clear
8:35 AM 50.2 °F 14.4 °F 24% 30.06 in 10.0 mi WSW 11.5 mph - N/A   Clear
8:55 AM 51.3 °F 13.8 °F 23% 30.08 in 10.0 mi WSW 12.7 mph - N/A   Clear
9:15 AM 52.7 °F 14.9 °F 22% 30.09 in 10.0 mi West 10.4 mph - N/A   Clear
9:35 AM 53.6 °F 17.6 °F 24% 30.12 in 10.0 mi WNW 12.7 mph 18.4 mph N/A   Clear
9:55 AM 53.6 °F 20.7 °F 28% 30.13 in 10.0 mi NW 15.0 mph - N/A   Clear
10:15 AM 52.0 °F 23.7 °F 33% 30.14 in 10.0 mi NW 18.4 mph 24.2 mph N/A   Clear
10:35 AM 50.7 °F 25.2 °F 37% 30.16 in 10.0 mi NW 17.3 mph 20.7 mph N/A   Clear
10:55 AM 50.9 °F 25.9 °F 38% 30.17 in 10.0 mi NNW 16.1 mph 20.7 mph N/A   Clear
11:15 AM 51.3 °F 26.2 °F 38% 30.18 in 10.0 mi NW 18.4 mph - N/A   Clear
11:35 AM 52.2 °F 25.5 °F 36% 30.19 in 10.0 mi North 18.4 mph 23.0 mph N/A   Clear
11:55 AM 52.5 °F 25.2 °F 35% 30.19 in 10.0 mi NNW 20.7 mph 26.5 mph N/A   Clear
12:15 PM 53.4 °F 25.5 °F 34% 30.20 in 10.0 mi NNW 15.0 mph 26.5 mph N/A   Clear
12:35 PM 54.3 °F 25.7 °F 33% 30.20 in 10.0 mi North 16.1 mph 20.7 mph N/A   Clear
12:55 PM 55.4 °F 25.3 °F 31% 30.20 in 10.0 mi North 13.8 mph 24.2 mph N/A   Clear
1:15 PM 56.5 °F 25.2 °F 30% 30.20 in 10.0 mi North 15.0 mph 20.7 mph N/A   Clear
1:35 PM 56.8 °F 25.0 °F 29% 30.21 in 10.0 mi NNE 17.3 mph 23.0 mph N/A   Clear
1:55 PM 58.3 °F 25.2 °F 28% 30.21 in 10.0 mi North 16.1 mph 24.2 mph N/A   Clear
2:15 PM 58.5 °F 25.0 °F 28% 30.21 in 10.0 mi North 13.8 mph 24.2 mph N/A   Clear
2:35 PM 59.4 °F 25.5 °F 27% 30.21 in 10.0 mi North 13.8 mph 25.3 mph N/A   Clear
2:55 PM 60.1 °F 24.8 °F 26% 30.20 in 10.0 mi North 15.0 mph 25.3 mph N/A   Clear
3:15 PM 60.8 °F 24.8 °F 25% 30.20 in 10.0 mi NNE 13.8 mph 25.3 mph N/A   Clear
3:35 PM 61.9 °F 25.0 °F 25% 30.19 in 10.0 mi NNE 13.8 mph 26.5 mph N/A   Clear
3:55 PM 62.4 °F 24.8 °F 24% 30.19 in 10.0 mi North 19.6 mph 25.3 mph N/A   Clear
4:15 PM 63.3 °F 24.4 °F 23% 30.19 in 10.0 mi NNE 15.0 mph 29.9 mph N/A   Clear
4:35 PM 64.6 °F 24.1 °F 21% 30.20 in 10.0 mi North 15.0 mph 24.2 mph N/A   Clear
4:55 PM 64.8 °F 23.4 °F 21% 30.20 in 10.0 mi North 23.0 mph 28.8 mph N/A   Clear
5:15 PM 64.0 °F 22.5 °F 20% 30.20 in 10.0 mi North 20.7 mph 27.6 mph N/A   Clear
5:35 PM 64.0 °F 22.5 °F 20% 30.21 in 10.0 mi NNE 16.1 mph 27.6 mph N/A   Clear
5:55 PM 63.5 °F 22.3 °F 21% 30.21 in 10.0 mi North 18.4 mph 27.6 mph N/A   Clear
6:15 PM 62.2 °F 22.1 °F 21% 30.22 in 10.0 mi NNE 16.1 mph 27.6 mph N/A   Clear
6:35 PM 61.0 °F 21.9 °F 22% 30.23 in 10.0 mi NNE 13.8 mph 27.6 mph N/A   Clear
6:55 PM 60.1 °F 21.2 °F 22% 30.24 in 10.0 mi North 12.7 mph 26.5 mph N/A   Clear
7:15 PM 58.8 °F 20.8 °F 23% 30.25 in 10.0 mi North 18.4 mph 24.2 mph N/A   Clear
7:35 PM 57.4 °F 20.7 °F 24% 30.26 in 10.0 mi North 16.1 mph 21.9 mph N/A   Clear
7:55 PM 55.8 °F 20.7 °F 26% 30.26 in 10.0 mi North 11.5 mph - N/A   Clear
8:15 PM 54.7 °F 20.7 °F 27% 30.28 in 10.0 mi North 10.4 mph 16.1 mph N/A   Clear
8:35 PM 53.6 °F 20.8 °F 28% 30.29 in 10.0 mi North 9.2 mph - N/A   Clear
8:55 PM 52.7 °F 21.2 °F 29% 30.31 in 10.0 mi North 11.5 mph 17.3 mph N/A   Clear
9:15 PM 52.0 °F 21.7 °F 31% 30.32 in 10.0 mi North 11.5 mph 16.1 mph N/A   Clear
9:35 PM 51.3 °F 22.1 °F 32% 30.33 in 10.0 mi NNE 9.2 mph 17.3 mph N/A   Clear
9:55 PM 50.7 °F 22.8 °F 34% 30.34 in 10.0 mi NNE 9.2 mph - N/A   Clear
10:15 PM 50.0 °F 23.0 °F 35% 30.35 in 10.0 mi NNE 9.2 mph - N/A   Clear
10:35 PM 49.3 °F 23.0 °F 36% 30.35 in 10.0 mi NE 8.1 mph - N/A   Clear
10:55 PM 48.0 °F 23.2 °F 38% 30.36 in 10.0 mi NE 6.9 mph - N/A   Clear
11:15 PM 46.6 °F 23.4 °F 40% 30.36 in 10.0 mi NE 5.8 mph - N/A   Clear
11:35 PM 46.9 °F 23.4 °F 40% 30.37 in 10.0 mi ENE 3.5 mph - N/A   Clear
11:55 PM 47.3 °F 23.4 °F 39% 30.38 in 10.0 mi ENE 3.5 mph - N/A   Clear